Girona, Spain

11:05 PM CEST on April 28, 2017 (GMT +0200)
Girona

Weather History for LEGE - November, 2012

Change the Weather History Date:

Monday, November 26, 2012

  Actual Average Record
Temperature  
Mean Temperature 56 °F -  
Max Temperature 64 °F 56 °F 69 °F (2007)
Min Temperature 48 °F 37 °F 26 °F (2008)
Degree Days  
Heating Degree Days 9    
Growing Degree Days 6 (Base 50)    
Moisture  
Dew Point 51 °F    
Average Humidity 83    
Maximum Humidity 100    
Minimum Humidity 63    
Precipitation  
Precipitation 0.43 in 0.07 in - ()
Sea Level Pressure  
Sea Level Pressure 29.86 in    
Wind  
Wind Speed 6 mph ()    
Max Wind Speed 15 mph    
Max Gust Speed -    
Visibility 6.1 miles    
Events Rain    
Averages and records for this station are not official NWS values.
T = Trace of Precipitation, MM = Missing Value Source: Averaged Metar Reports

Daily Weather History Graph

Daily Weather History Graph

Search for Another Location

Airport or City:

Trip Planner

Search our weather history database for the weather conditions in past years. The results will help you decide how hot, cold, wet, or windy it might be!

Date:

Astronomy

Nov. 26, 2012 Rise Set
Actual Time 7:51 AM CET 5:20 PM CET
Civil Twilight 7:21 AM CET 5:51 PM CET
Nautical Twilight 6:46 AM CET 6:25 PM CET
Astronomical Twilight 6:13 AM CET 6:59 PM CET
Moon 4:04 PM CET (11/26) 5:46 AM CET (11/26)
Length of Visible Light 10h 30m
Length of Day
9h 28m
Waxing Gibbous, 96% of the Moon is Illuminated
Nov 26
Waxing Gibbous
Nov 28
Full
Dec 6
Last Quarter
Dec 13
New
Dec 20
First Quarter

Hourly Weather History & Observations

Time (CET) Temp. Dew Point Humidity Pressure Visibility Wind Dir Wind Speed Gust Speed Precip Events Conditions
12:00 AM 55.4 °F 53.6 °F 94% 29.98 in 5.6 mi SSW 3.5 mph - N/A   Unknown
12:30 AM 55.4 °F 51.8 °F 88% 29.98 in 5.6 mi Variable 1.2 mph - N/A   Unknown
1:00 AM 56 °F 51 °F 80% 29.97 in 6 mi SSW 2.3 mph - -   Mist
1:00 AM 53.6 °F 53.6 °F 100% 29.98 in 5.6 mi Variable 2.3 mph - N/A   Unknown
1:30 AM 53.6 °F 53.6 °F 100% 29.95 in 5.6 mi Variable 2.3 mph - N/A   Unknown
2:00 AM 55.4 °F 53.6 °F 94% 29.95 in 5.6 mi SSW 4.6 mph - N/A   Unknown
2:30 AM 55.4 °F 53.6 °F 94% 29.95 in 5.6 mi West 1.2 mph - N/A   Unknown
3:00 AM 55.4 °F 53.6 °F 94% 29.95 in 5.6 mi Variable 2.3 mph - N/A   Unknown
3:30 AM 55.4 °F 53.6 °F 94% 29.92 in 5.6 mi WSW 4.6 mph - N/A   Unknown
4:00 AM 53.6 °F 51.8 °F 94% 29.92 in 5.6 mi Variable 2.3 mph - N/A   Unknown
4:30 AM 55.4 °F 51.8 °F 88% 29.92 in 5.6 mi SW 9.2 mph - N/A   Unknown
5:00 AM 55.4 °F 50.0 °F 82% 29.89 in 5.6 mi SSW 15.0 mph - N/A   Unknown
5:30 AM 55.4 °F 50.0 °F 82% 29.89 in 5.6 mi SSW 15.0 mph - N/A   Unknown
6:00 AM 55.4 °F 50.0 °F 82% 29.89 in 5.6 mi SSW 15.0 mph - N/A   Unknown
6:30 AM 55.4 °F 51.8 °F 88% 29.89 in 5.6 mi SSW 11.5 mph - N/A   Unknown
7:00 AM 57 °F 51 °F 75% 29.88 in - SSW 12.7 mph - -  
7:00 AM 55.4 °F 50.0 °F 82% 29.89 in - SSW 11.5 mph - N/A   Clear
7:30 AM 55.4 °F 51.8 °F 88% 29.89 in - SSW 13.8 mph - N/A   Clear
8:00 AM 55.4 °F 51.8 °F 88% 29.89 in - SSW 12.7 mph - N/A   Clear
8:30 AM 55.4 °F 51.8 °F 88% 29.89 in - SSW 10.4 mph - N/A   Clear
9:00 AM 57.2 °F 51.8 °F 82% 29.89 in 6.2 mi SSW 11.5 mph - N/A   Partly Cloudy
9:30 AM 57.2 °F 51.8 °F 82% 29.89 in 6.2 mi SSW 12.7 mph - N/A   Scattered Clouds
10:00 AM 57.2 °F 51.8 °F 82% 29.89 in 6.2 mi SW 11.5 mph - N/A   Scattered Clouds
10:30 AM 59.0 °F 51.8 °F 77% 29.89 in 6.2 mi SSW 8.1 mph - N/A   Scattered Clouds
11:00 AM 59.0 °F 51.8 °F 77% 29.89 in 6.2 mi SSW 10.4 mph - N/A   Scattered Clouds
11:30 AM 60.8 °F 51.8 °F 72% 29.89 in 6.2 mi SSW 10.4 mph - N/A   Scattered Clouds
12:00 PM 60.8 °F 51.8 °F 72% 29.89 in 6.2 mi SSW 13.8 mph - N/A   Scattered Clouds
12:30 PM 60.8 °F 51.8 °F 72% 29.86 in 6.2 mi SSW 9.2 mph - N/A   Scattered Clouds
1:00 PM 62 °F 53 °F 63% 29.83 in 12 mi SSW 9.2 mph - -   Overcast
1:00 PM 60.8 °F 51.8 °F 72% 29.86 in 6.2 mi SSW 9.2 mph - N/A   Scattered Clouds
1:30 PM 60.8 °F 51.8 °F 72% 29.83 in 6.2 mi SW 6.9 mph - N/A   Scattered Clouds
2:00 PM 62.6 °F 53.6 °F 72% 29.83 in 6.2 mi SW 5.8 mph - N/A   Scattered Clouds
2:30 PM 62.6 °F 51.8 °F 68% 29.80 in 6.2 mi SSW 6.9 mph - N/A   Scattered Clouds
3:00 PM 62.6 °F 51.8 °F 68% 29.80 in 6.2 mi South 5.8 mph - N/A   Scattered Clouds
3:30 PM 60.8 °F 51.8 °F 72% 29.80 in 6.2 mi Calm Calm - N/A   Scattered Clouds
4:00 PM 59.0 °F 51.8 °F 77% 29.80 in 6.2 mi NNE 10.4 mph - N/A   Mostly Cloudy
4:30 PM 59.0 °F 51.8 °F 77% 29.80 in 6.2 mi Variable 2.3 mph - N/A   Mostly Cloudy
5:00 PM 57.2 °F 51.8 °F 82% 29.80 in 6.2 mi NNE 2.3 mph - N/A   Mostly Cloudy
5:30 PM 57.2 °F 51.8 °F 82% 29.80 in 6.2 mi North 4.6 mph - N/A   Mostly Cloudy
6:00 PM 57.2 °F 51.8 °F 82% 29.80 in 6.2 mi North 4.6 mph - N/A   Mostly Cloudy
6:30 PM 57.2 °F 51.8 °F 82% 29.77 in 6.2 mi NNE 4.6 mph - N/A   Mostly Cloudy
7:00 PM 58 °F 53 °F 80% 29.77 in 7 mi NE 4.6 mph - -   Overcast
7:00 PM 57.2 °F 51.8 °F 82% 29.77 in 6.2 mi NE 4.6 mph - N/A   Mostly Cloudy
7:30 PM 57.2 °F 51.8 °F 82% 29.80 in 6.2 mi NNE 3.5 mph - N/A   Mostly Cloudy
8:00 PM 53.6 °F 48.2 °F 82% 29.80 in 6.2 mi NNE 10.4 mph - N/A Rain Light Rain
8:30 PM 53.6 °F 46.4 °F 77% 29.77 in 6.2 mi NNE 11.5 mph - N/A Rain Light Rain
9:00 PM 51.8 °F 46.4 °F 82% 29.80 in 6.2 mi North 9.2 mph - N/A Rain Light Rain
9:30 PM 50.0 °F 46.4 °F 87% 29.80 in 6.2 mi NNE 9.2 mph - N/A Rain Rain
9:34 PM 50.0 °F 46.4 °F 87% 29.80 in 5.0 mi North 6.9 mph - N/A Rain Heavy Rain
10:00 PM 50.0 °F 48.2 °F 94% 29.80 in 4.3 mi NE 10.4 mph - N/A Rain Rain
10:30 PM 50.0 °F 50.0 °F 100% 29.80 in 5.6 mi NE 8.1 mph - N/A Rain Rain
11:00 PM 48.2 °F 48.2 °F 100% 29.80 in 5.6 mi NNE 5.8 mph - N/A Rain Rain
11:30 PM 48.2 °F 48.2 °F 100% 29.80 in 5.6 mi NE 5.8 mph - N/A Rain Rain